When you browse on this site, cookies collect data to enhance your experience and personalize the content and advertising you see.
Visit our Privacy Policy to learn more. By continuing to use the site, you agree to this use of cookies and data.
  • In Czech Republic
  • List of Countries
  • For 7 days
  • Water Temperature
  • Satellite Maps
  • Weather Map
  • Weather Widgets
  • user-avatar
    Login

    Hourly Weather Westborough

    Today, 23 July, Tuesday

    Time Temperature Precipitation Wind Pressure Humidity
    00:00 +19°C° 3.5 mm 3 mps 747 mmHg 97%
    01:00 +18°C° 3.5 mm 3 mps 747 mmHg 97%
    02:00 +18°C° 2.3 mm 3 mps 747 mmHg 97%
    03:00 +18°C° 2.3 mm 3 mps 747 mmHg 98%
    04:00 +18°C° 2.3 mm 3 mps 747 mmHg 98%
    05:00 +18°C° 2.4 mm 3 mps 747 mmHg 98%
    06:00 +18°C° 2.4 mm 3 mps 747 mmHg 98%
    07:00 +18°C° 2.4 mm 3 mps 747 mmHg 98%
    08:00 +18°C° 2.8 mm 3 mps 747 mmHg 98%
    09:00 +17°C° 2.8 mm 3 mps 747 mmHg 97%
    10:00 +17°C° 2.8 mm 4 mps 747 mmHg 97%
    11:00 +18°C° 0.5 mm 3 mps 748 mmHg 94%
    12:00 +18°C° 0.5 mm 3 mps 748 mmHg 92%
    13:00 +19°C° 0.5 mm 2 mps 749 mmHg 89%
    14:00 +19°C° 0 mm 2 mps 749 mmHg 85%
    15:00 +20°C° 0 mm 2 mps 749 mmHg 81%
    16:00 +21°C° 0 mm 2 mps 749 mmHg 77%
    17:00 +21°C° 0 mm 1 mps 749 mmHg 80%
    18:00 +20°C° 0 mm 1 mps 750 mmHg 83%
    19:00 +18°C° 0 mm 0 mps 750 mmHg 87%
    20:00 +17°C° 0 mm 0 mps 750 mmHg 88%
    21:00 +17°C° 0 mm 0 mps 750 mmHg 89%
    22:00 +16°C° 0 mm 0 mps 750 mmHg 90%
    23:00 +16°C° 0 mm 0 mps 750 mmHg 90%

    Tomorrow, 24 July, Wednesday

    Time Temperature Precipitation Wind Pressure Humidity
    00:00 +16°C° 0 mm 0 mps 750 mmHg 90%
    01:00 +17°C° 0 mm 0 mps 750 mmHg 90%
    02:00 +17°C° 0.1 mm 0 mps 750 mmHg 91%
    03:00 +16°C° 0.1 mm 0 mps 750 mmHg 92%
    04:00 +16°C° 0.1 mm 0 mps 750 mmHg 93%
    05:00 +16°C° 0 mm 0 mps 750 mmHg 92%
    06:00 +19°C° 0 mm 1 mps 751 mmHg 92%
    07:00 +19°C° 0 mm 1 mps 751 mmHg 92%
    08:00 +21°C° 0 mm 1 mps 751 mmHg 79%
    09:00 +24°C° 0 mm 2 mps 751 mmHg 67%
    10:00 +26°C° 0 mm 2 mps 751 mmHg 55%
    11:00 +27°C° 0 mm 2 mps 751 mmHg 51%
    12:00 +28°C° 0 mm 2 mps 751 mmHg 47%
    13:00 +29°C° 0 mm 2 mps 751 mmHg 44%
    14:00 +28°C° 0 mm 2 mps 751 mmHg 47%
    15:00 +28°C° 0 mm 1 mps 751 mmHg 51%
    16:00 +27°C° 0 mm 1 mps 751 mmHg 54%
    17:00 +26°C° 0 mm 1 mps 751 mmHg 61%
    18:00 +24°C° 0 mm 1 mps 752 mmHg 68%
    19:00 +22°C° 0 mm 1 mps 752 mmHg 75%
    20:00 +21°C° 0 mm 1 mps 752 mmHg 80%
    21:00 +20°C° 0 mm 1 mps 753 mmHg 84%
    22:00 +18°C° 0 mm 1 mps 753 mmHg 89%
    23:00 +18°C° 0 mm 1 mps 753 mmHg 90%

    Day after tomorrow, 25 July, Thursday

    Time Temperature Precipitation Wind Pressure Humidity
    00:00 +18°C° 0 mm 1 mps 753 mmHg 91%
    01:00 +18°C° 0 mm 1 mps 753 mmHg 93%
    02:00 +16°C° 0 mm 1 mps 753 mmHg 91%
    03:00 +16°C° 0 mm 1 mps 753 mmHg 89%
    04:00 +16°C° 0 mm 1 mps 754 mmHg 87%
    05:00 +18°C° 0 mm 1 mps 754 mmHg 81%
    06:00 +20°C° 0 mm 1 mps 754 mmHg 76%
    07:00 +21°C° 0 mm 1 mps 755 mmHg 70%
    08:00 +24°C° 0 mm 1 mps 755 mmHg 62%
    09:00 +26°C° 0 mm 1 mps 755 mmHg 54%
    10:00 +27°C° 0 mm 0 mps 755 mmHg 46%
    11:00 +27°C° 0 mm 0 mps 755 mmHg 44%
    12:00 +30°C° 0 mm 1 mps 755 mmHg 42%
    13:00 +30°C° 0 mm 1 mps 755 mmHg 40%
    14:00 +30°C° 0 mm 1 mps 755 mmHg 41%
    15:00 +30°C° 0 mm 1 mps 755 mmHg 42%
    16:00 +29°C° 0 mm 1 mps 755 mmHg 44%
    17:00 +27°C° 0 mm 1 mps 755 mmHg 54%
    18:00 +25°C° 0 mm 1 mps 755 mmHg 64%
    19:00 +23°C° 0 mm 1 mps 756 mmHg 74%
    20:00 +22°C° 0 mm 1 mps 756 mmHg 77%
    21:00 +21°C° 0 mm 1 mps 756 mmHg 80%
    22:00 +19°C° 0 mm 2 mps 756 mmHg 83%
    23:00 +18°C° 0 mm 2 mps 756 mmHg 83%

    26 July, Friday

    Time Temperature Precipitation Wind Pressure Humidity
    00:00 +19°C° 0 mm 1 mps 757 mmHg 83%
    01:00 +19°C° 0 mm 1 mps 757 mmHg 82%
    02:00 +19°C° 0 mm 1 mps 757 mmHg 83%
    03:00 +19°C° 0 mm 1 mps 757 mmHg 85%
    04:00 +19°C° 0 mm 1 mps 757 mmHg 86%
    05:00 +20°C° 0 mm 1 mps 757 mmHg 81%
    06:00 +22°C° 0 mm 1 mps 758 mmHg 77%
    07:00 +24°C° 0 mm 1 mps 758 mmHg 72%
    08:00 +26°C° 0 mm 1 mps 758 mmHg 63%
    09:00 +28°C° 0 mm 1 mps 758 mmHg 55%
    10:00 +31°C° 0 mm 1 mps 758 mmHg 46%
    11:00 +31°C° 0 mm 1 mps 758 mmHg 43%
    12:00 +32°C° 0 mm 1 mps 758 mmHg 40%
    13:00 +34°C° 0 mm 2 mps 758 mmHg 37%
    14:00 +34°C° 0 mm 2 mps 758 mmHg 38%
    15:00 +34°C° 0 mm 2 mps 758 mmHg 39%
    16:00 +32°C° 0 mm 2 mps 758 mmHg 41%
    17:00 +30°C° 0 mm 2 mps 758 mmHg 51%
    18:00 +28°C° 0 mm 2 mps 758 mmHg 60%
    19:00 +26°C° 0 mm 2 mps 758 mmHg 70%
    20:00 +24°C° 0 mm 2 mps 758 mmHg 71%
    21:00 +23°C° 0 mm 2 mps 759 mmHg 73%
    22:00 +21°C° 0 mm 2 mps 759 mmHg 74%
    23:00 +21°C° 0 mm 2 mps 759 mmHg 75%

    27 July, Saturday

    Time Temperature Precipitation Wind Pressure Humidity
    00:00 +21°C° 0 mm 2 mps 759 mmHg 76%
    01:00 +20°C° 0 mm 2 mps 759 mmHg 77%
    02:00 +21°C° 0 mm 1 mps 759 mmHg 77%
    03:00 +21°C° 0 mm 1 mps 759 mmHg 77%
    04:00 +21°C° 0 mm 1 mps 759 mmHg 77%
    05:00 +22°C° 0 mm 1 mps 759 mmHg 74%
    06:00 +24°C° 0 mm 1 mps 760 mmHg 71%
    07:00 +25°C° 0 mm 1 mps 760 mmHg 68%
    08:00 +28°C° 0 mm 1 mps 760 mmHg 60%
    09:00 +30°C° 0 mm 1 mps 760 mmHg 52%
    10:00 +32°C° 0 mm 2 mps 760 mmHg 43%
    11:00 +34°C° 0 mm 2 mps 760 mmHg 41%
    12:00 +34°C° 0 mm 2 mps 760 mmHg 39%
    13:00 +35°C° 0 mm 2 mps 759 mmHg 37%
    14:00 +34°C° 0 mm 3 mps 759 mmHg 40%
    15:00 +34°C° 0 mm 3 mps 759 mmHg 43%
    16:00 +34°C° 0 mm 3 mps 759 mmHg 46%
    17:00 +30°C° 0 mm 3 mps 758 mmHg 54%
    18:00 +28°C° 0 mm 3 mps 758 mmHg 63%
    19:00 +26°C° 0 mm 3 mps 758 mmHg 71%
    20:00 +25°C° 0 mm 3 mps 759 mmHg 74%
    21:00 +24°C° 0 mm 3 mps 759 mmHg 76%
    22:00 +23°C° 0 mm 2 mps 759 mmHg 79%
    23:00 +23°C° 0 mm 2 mps 759 mmHg 81%

    28 July, Sunday

    Time Temperature Precipitation Wind Pressure Humidity
    00:00 +21°C° 0 mm 2 mps 759 mmHg 82%
    01:00 +21°C° 0 mm 2 mps 759 mmHg 84%
    02:00 +20°C° 0 mm 2 mps 759 mmHg 86%
    03:00 +20°C° 0 mm 2 mps 759 mmHg 87%
    04:00 +20°C° 0 mm 2 mps 759 mmHg 89%
    05:00 +21°C° 0 mm 2 mps 759 mmHg 84%
    06:00 +24°C° 0 mm 2 mps 759 mmHg 79%
    07:00 +25°C° 0 mm 2 mps 759 mmHg 75%
    08:00 +27°C° 0 mm 2 mps 759 mmHg 65%
    09:00 +30°C° 0 mm 2 mps 759 mmHg 55%
    10:00 +32°C° 0 mm 2 mps 759 mmHg 45%
    11:00 +34°C° 0 mm 2 mps 758 mmHg 42%
    12:00 +34°C° 0 mm 3 mps 758 mmHg 39%
    13:00 +35°C° 0 mm 3 mps 757 mmHg 36%
    14:00 +35°C° 0 mm 3 mps 757 mmHg 37%
    15:00 +35°C° 0 mm 3 mps 757 mmHg 39%
    16:00 +34°C° 0 mm 3 mps 756 mmHg 40%
    17:00 +31°C° 0 mm 3 mps 756 mmHg 50%
    18:00 +29°C° 0 mm 3 mps 756 mmHg 61%
    19:00 +27°C° 0 mm 3 mps 756 mmHg 71%
    20:00 +26°C° 0 mm 3 mps 756 mmHg 74%
    21:00 +25°C° 0 mm 3 mps 757 mmHg 76%
    22:00 +24°C° 0 mm 3 mps 757 mmHg 78%
    23:00 +22°C° 0 mm 3 mps 757 mmHg 80%
    Show more